When you browse on this site, cookies collect data to enhance your experience and personalize the content and advertising you see.
Visit our Privacy Policy to learn more. By continuing to use the site, you agree to this use of cookies and data.
  • In Belgium
  • List of Countries
  • For 7 days
  • Water Temperature
  • Weather Map
  • Weather Widgets
  • user-avatar
    Login

    Hourly Weather Moung

    Today, 24 February, Monday

    Time Temperature Precipitation Wind Pressure Humidity
    00:00 +27°C° 0 mm 3 mps 760 mmHg 56%
    01:00 +25°C° 0 mm 2 mps 760 mmHg 63%
    02:00 +25°C° 0 mm 2 mps 759 mmHg 66%
    03:00 +24°C° 0 mm 1 mps 759 mmHg 69%
    04:00 +22°C° 0 mm 0 mps 759 mmHg 72%
    05:00 +24°C° 0 mm 1 mps 759 mmHg 70%
    06:00 +24°C° 0 mm 1 mps 760 mmHg 68%
    07:00 +24°C° 0 mm 2 mps 760 mmHg 66%
    08:00 +26°C° 0 mm 2 mps 760 mmHg 58%
    09:00 +28°C° 0 mm 3 mps 760 mmHg 50%
    10:00 +30°C° 0 mm 3 mps 760 mmHg 42%
    11:00 +33°C° 0 mm 3 mps 759 mmHg 37%
    12:00 +35°C° 0 mm 3 mps 758 mmHg 31%
    13:00 +37°C° 0 mm 4 mps 757 mmHg 25%
    14:00 +37°C° 0 mm 3 mps 756 mmHg 24%
    15:00 +38°C° 0 mm 3 mps 756 mmHg 24%
    16:00 +38°C° 0 mm 2 mps 755 mmHg 23%
    17:00 +36°C° 0 mm 2 mps 755 mmHg 26%
    18:00 +34°C° 0 mm 2 mps 756 mmHg 29%
    19:00 +31°C° 0 mm 2 mps 756 mmHg 32%
    20:00 +30°C° 0 mm 3 mps 757 mmHg 38%
    21:00 +29°C° 0 mm 3 mps 757 mmHg 44%
    22:00 +27°C° 0 mm 4 mps 758 mmHg 49%
    23:00 +26°C° 0 mm 4 mps 758 mmHg 59%

    Tomorrow, 25 February, Tuesday

    Time Temperature Precipitation Wind Pressure Humidity
    00:00 +25°C° 0 mm 3 mps 758 mmHg 68%
    01:00 +24°C° 0 mm 3 mps 758 mmHg 77%
    02:00 +24°C° 0 mm 3 mps 757 mmHg 80%
    03:00 +24°C° 0 mm 3 mps 757 mmHg 82%
    04:00 +24°C° 0 mm 2 mps 757 mmHg 84%
    05:00 +24°C° 0 mm 2 mps 758 mmHg 82%
    06:00 +24°C° 0 mm 2 mps 758 mmHg 80%
    07:00 +24°C° 0 mm 2 mps 759 mmHg 78%
    08:00 +27°C° 0 mm 2 mps 759 mmHg 70%
    09:00 +29°C° 0 mm 2 mps 759 mmHg 61%
    10:00 +31°C° 0 mm 2 mps 759 mmHg 53%
    11:00 +34°C° 0 mm 2 mps 758 mmHg 46%
    12:00 +35°C° 0 mm 1 mps 757 mmHg 39%
    13:00 +36°C° 0 mm 1 mps 756 mmHg 33%
    14:00 +37°C° 0 mm 1 mps 756 mmHg 31%
    15:00 +37°C° 0 mm 1 mps 755 mmHg 30%
    16:00 +38°C° 0 mm 2 mps 754 mmHg 28%
    17:00 +35°C° 0 mm 1 mps 755 mmHg 31%
    18:00 +34°C° 0 mm 1 mps 755 mmHg 34%
    19:00 +32°C° 0 mm 1 mps 755 mmHg 37%
    20:00 +31°C° 0 mm 2 mps 756 mmHg 44%
    21:00 +30°C° 0 mm 3 mps 757 mmHg 51%
    22:00 +29°C° 0 mm 4 mps 758 mmHg 57%
    23:00 +28°C° 0 mm 4 mps 758 mmHg 64%

    Day after tomorrow, 26 February, Wednesday

    Time Temperature Precipitation Wind Pressure Humidity
    00:00 +27°C° 0 mm 4 mps 758 mmHg 70%
    01:00 +27°C° 0 mm 4 mps 758 mmHg 76%
    02:00 +27°C° 0 mm 4 mps 757 mmHg 78%
    03:00 +26°C° 0 mm 3 mps 757 mmHg 79%
    04:00 +26°C° 0 mm 3 mps 757 mmHg 80%
    05:00 +26°C° 0 mm 2 mps 758 mmHg 80%
    06:00 +26°C° 0 mm 2 mps 758 mmHg 81%
    07:00 +26°C° 0 mm 2 mps 759 mmHg 81%
    08:00 +28°C° 0 mm 2 mps 759 mmHg 71%
    09:00 +30°C° 0 mm 2 mps 759 mmHg 62%
    10:00 +33°C° 0 mm 3 mps 759 mmHg 53%
    11:00 +35°C° 0 mm 2 mps 758 mmHg 47%
    12:00 +36°C° 0 mm 1 mps 757 mmHg 41%
    13:00 +37°C° 0 mm 1 mps 756 mmHg 35%
    14:00 +37°C° 0 mm 1 mps 756 mmHg 33%
    15:00 +37°C° 0 mm 1 mps 755 mmHg 32%
    16:00 +39°C° 0 mm 1 mps 754 mmHg 30%
    17:00 +36°C° 0 mm 1 mps 755 mmHg 33%
    18:00 +35°C° 0 mm 1 mps 755 mmHg 35%
    19:00 +33°C° 0 mm 1 mps 756 mmHg 38%
    20:00 +32°C° 0 mm 2 mps 756 mmHg 43%
    21:00 +32°C° 0 mm 4 mps 757 mmHg 49%
    22:00 +30°C° 0 mm 5 mps 757 mmHg 54%
    23:00 +29°C° 0 mm 5 mps 757 mmHg 60%

    27 February, Thursday

    Time Temperature Precipitation Wind Pressure Humidity
    00:00 +28°C° 0 mm 5 mps 757 mmHg 66%
    01:00 +27°C° 0 mm 5 mps 757 mmHg 72%
    02:00 +26°C° 0 mm 4 mps 757 mmHg 75%
    03:00 +26°C° 0 mm 3 mps 757 mmHg 78%
    04:00 +25°C° 0 mm 3 mps 756 mmHg 81%
    05:00 +25°C° 0 mm 2 mps 757 mmHg 80%
    06:00 +26°C° 0 mm 2 mps 758 mmHg 80%
    07:00 +26°C° 0 mm 2 mps 758 mmHg 79%
    08:00 +28°C° 0 mm 2 mps 758 mmHg 70%
    09:00 +30°C° 0 mm 2 mps 758 mmHg 61%
    10:00 +32°C° 0 mm 2 mps 759 mmHg 52%
    11:00 +34°C° 0 mm 2 mps 758 mmHg 47%
    12:00 +35°C° 0 mm 1 mps 757 mmHg 41%
    13:00 +37°C° 0 mm 1 mps 756 mmHg 36%
    14:00 +37°C° 0 mm 1 mps 755 mmHg 34%
    15:00 +37°C° 0 mm 1 mps 755 mmHg 33%
    16:00 +37°C° 0 mm 1 mps 754 mmHg 31%
    17:00 +37°C° 0 mm 2 mps 754 mmHg 34%
    18:00 +36°C° 0 mm 2 mps 755 mmHg 36%
    19:00 +34°C° 0 mm 2 mps 755 mmHg 39%
    20:00 +33°C° 0 mm 3 mps 756 mmHg 45%
    21:00 +32°C° 0 mm 4 mps 756 mmHg 52%
    22:00 +29°C° 0 mm 5 mps 757 mmHg 58%
    23:00 +28°C° 0 mm 5 mps 757 mmHg 64%

    28 February, Friday

    Time Temperature Precipitation Wind Pressure Humidity
    00:00 +27°C° 0 mm 5 mps 757 mmHg 69%
    01:00 +26°C° 0 mm 5 mps 757 mmHg 74%
    02:00 +26°C° 0 mm 4 mps 757 mmHg 77%
    03:00 +25°C° 0 mm 3 mps 756 mmHg 80%
    04:00 +25°C° 0 mm 3 mps 756 mmHg 83%
    05:00 +25°C° 0 mm 3 mps 757 mmHg 83%
    06:00 +25°C° 0 mm 2 mps 757 mmHg 83%
    07:00 +25°C° 0 mm 2 mps 758 mmHg 83%
    08:00 +27°C° 0 mm 2 mps 758 mmHg 73%
    09:00 +29°C° 0 mm 3 mps 758 mmHg 63%
    10:00 +31°C° 0 mm 3 mps 758 mmHg 52%
    11:00 +34°C° 0 mm 2 mps 757 mmHg 46%
    12:00 +35°C° 0 mm 1 mps 756 mmHg 41%
    13:00 +36°C° 0 mm 1 mps 755 mmHg 35%
    14:00 +37°C° 0 mm 1 mps 754 mmHg 33%
    15:00 +37°C° 0 mm 1 mps 754 mmHg 31%
    16:00 +38°C° 0 mm 2 mps 753 mmHg 29%
    17:00 +36°C° 0 mm 1 mps 753 mmHg 32%
    18:00 +34°C° 0 mm 1 mps 754 mmHg 34%
    19:00 +31°C° 0 mm 0 mps 754 mmHg 37%
    20:00 +32°C° 0 mm 2 mps 755 mmHg 43%
    21:00 +30°C° 0 mm 3 mps 755 mmHg 50%
    22:00 +29°C° 0 mm 4 mps 756 mmHg 57%
    23:00 +28°C° 0 mm 5 mps 756 mmHg 62%

    29 February, Saturday

    Time Temperature Precipitation Wind Pressure Humidity
    00:00 +27°C° 0 mm 5 mps 756 mmHg 67%
    01:00 +27°C° 0 mm 5 mps 756 mmHg 72%
    02:00 +26°C° 0 mm 4 mps 755 mmHg 75%
    03:00 +26°C° 0 mm 3 mps 755 mmHg 77%
    04:00 +25°C° 0 mm 2 mps 755 mmHg 80%
    05:00 +25°C° 0 mm 2 mps 756 mmHg 80%
    06:00 +25°C° 0 mm 2 mps 756 mmHg 81%
    07:00 +25°C° 0 mm 2 mps 757 mmHg 82%
    08:00 +27°C° 0 mm 3 mps 757 mmHg 71%
    09:00 +30°C° 0 mm 3 mps 757 mmHg 60%
    10:00 +33°C° 0 mm 4 mps 758 mmHg 49%
    11:00 +34°C° 0 mm 3 mps 757 mmHg 44%
    12:00 +36°C° 0 mm 3 mps 756 mmHg 38%
    13:00 +37°C° 0 mm 2 mps 755 mmHg 33%
    14:00 +38°C° 0 mm 2 mps 754 mmHg 31%
    15:00 +37°C° 0 mm 1 mps 753 mmHg 29%
    16:00 +39°C° 0 mm 1 mps 753 mmHg 28%
    17:00 +36°C° 0 mm 1 mps 753 mmHg 30%
    18:00 +34°C° 0 mm 1 mps 754 mmHg 33%
    19:00 +33°C° 0 mm 1 mps 754 mmHg 36%
    20:00 +31°C° 0 mm 2 mps 755 mmHg 46%
    21:00 +30°C° 0 mm 4 mps 755 mmHg 56%
    22:00 +29°C° 0 mm 5 mps 756 mmHg 67%
    23:00 +28°C° 0 mm 5 mps 756 mmHg 70%
    Show more